Location: Newark
(48.1500°N, 2.9667°W)
Time: 07:42:57
(UTC+00:00)

Transit 2A - Pass Details

Date: 02 February 2020
Orbit: 600 x 959 km, 66.7° (Epoch: 18 February)

Event Time Altitude Azimuth Distance (km) Brightness Sun altitude
Rises 03:41:09 0° 317° (NW) 3,018 - -39.6°
Reaches altitude 10° 03:43:33 10° 308° (NW) 2,149 - -39.2°
Maximum altitude 03:47:54 33° 245° (WSW) 1,216 - -38.5°
Drops below altitude 10° 03:52:39 10° 182° (S) 2,343 - -37.7°
Sets 03:55:22 0° 174° (S) 3,333 - -37.3°
